| time (UTC) | temp F | wind direction | speed MPH | gust MPH | rain 1hr in | rain 24hr in | rain mn in | humidity % | barometer mb |
| 20260504202100 | 46 | 158 | 4.0 | 11.0 | 0.00 | 0.00 | 0.00 | 47 | 1002.3 |
| 20260504201601 | 45 | 104 | 2.0 | 11.0 | 0.00 | 0.00 | 0.00 | 50 | 1002.2 |
| 20260504201101 | 43 | 155 | 3.0 | 14.0 | 0.00 | 0.00 | 0.00 | 51 | 1002.2 |
| 20260504200603 | 43 | 66 | 6.0 | 14.0 | 0.00 | 0.00 | 0.00 | 53 | 1002.2 |
| 20260504195602 | 44 | 96 | 3.0 | 17.0 | 0.00 | 0.00 | 0.00 | 55 | 1002.2 |
| 20260504195101 | 42 | 111 | 9.0 | 17.0 | 0.00 | 0.00 | 0.00 | 53 | 1001.9 |
| 20260504194601 | 45 | 103 | 2.0 | 16.0 | 0.00 | 0.00 | 0.00 | 53 | 1002.0 |
| 20260504194103 | 44 | 156 | 7.0 | 16.0 | 0.00 | 0.00 | 0.00 | 54 | 1002.1 |
| 20260504193601 | 42 | 138 | 5.0 | 16.0 | 0.00 | 0.00 | 0.00 | 56 | 1002.2 |
| 20260504193103 | 42 | 148 | 7.0 | 16.0 | 0.00 | 0.00 | 0.00 | 58 | 1002.2 |
| 20260504192601 | 42 | 138 | 5.0 | 14.0 | 0.00 | 0.00 | 0.00 | 58 | 1002.2 |
| 20260504191600 | 41 | 131 | 3.0 | 13.0 | 0.00 | 0.00 | 0.00 | 61 | 1002.1 |
| 20260504191103 | 40 | 124 | 4.0 | 15.0 | 0.00 | 0.00 | 0.00 | 61 | 1002.1 |
| 20260504190601 | 40 | 174 | 5.0 | 15.0 | 0.00 | 0.00 | 0.00 | 62 | 1002.2 |
| 20260504185600 | 41 | 139 | 4.0 | 15.0 | 0.00 | 0.00 | 0.00 | 62 | 1002.0 |
| 20260504185100 | 41 | 151 | 4.0 | 15.0 | 0.00 | 0.00 | 0.00 | 62 | 1001.8 |
| 20260504184602 | 41 | 149 | 3.0 | 12.0 | 0.00 | 0.00 | 0.00 | 64 | 1001.9 |
| 20260504183605 | 42 | 127 | 2.0 | 11.0 | 0.00 | 0.00 | 0.00 | 62 | 1001.7 |
| 20260504183103 | 41 | 144 | 4.0 | 17.0 | 0.00 | 0.00 | 0.00 | 62 | 1001.6 |
| 20260504182604 | 42 | 120 | 3.0 | 17.0 | 0.00 | 0.00 | 0.00 | 67 | 1001.6 |
| 20260504182103 | 41 | 155 | 4.0 | 14.0 | 0.00 | 0.00 | 0.00 | 65 | 1001.7 |
| 20260504181604 | 41 | 49 | 1.0 | 12.0 | 0.00 | 0.00 | 0.00 | 65 | 1001.1 |
| 20260504181104 | 42 | 133 | 3.0 | 13.0 | 0.00 | 0.00 | 0.00 | 66 | 1001.4 |
| 20260504175604 | 42 | 166 | 4.0 | 9.0 | 0.00 | 0.00 | 0.00 | 66 | 1000.9 |
| 20260504174602 | 41 | 154 | 6.0 | 19.0 | 0.00 | 0.00 | 0.00 | 70 | 1001.2 |
| 20260504174102 | 40 | 125 | 4.0 | 19.0 | 0.00 | 0.00 | 0.00 | 71 | 1001.1 |
| 20260504173604 | 40 | 133 | 2.0 | 11.0 | 0.00 | 0.00 | 0.00 | 73 | 1001.2 |
| 20260504172601 | 40 | 134 | 4.0 | 15.0 | 0.00 | 0.00 | 0.00 | 72 | 1001.4 |
| 20260504172101 | 39 | 144 | 4.0 | 17.0 | 0.00 | 0.00 | 0.00 | 75 | 1001.1 |
| 20260504171102 | 40 | 125 | 4.0 | 10.0 | 0.00 | 0.00 | 0.00 | 73 | 1000.8 |
| 20260504170601 | 40 | 158 | 4.0 | 18.0 | 0.00 | 0.00 | 0.00 | 76 | 1000.8 |
| 20260504151100 | 40 | 90 | 1.0 | 8.0 | 0.00 | 0.00 | 0.00 | 78 | 999.6 |
| 20260504150559 | 39 | 109 | 2.0 | 9.0 | 0.00 | 0.00 | 0.00 | 80 | 999.5 |
| 20260504140537 | 38 | 169 | 6.0 | 11.0 | 0.00 | 0.00 | 0.00 | 84 | 998.3 |
| 20260504130531 | 40 | 197 | 3.0 | 7.0 | 0.00 | 0.00 | 0.00 | 87 | 997.3 |
| 20260504110511 | 43 | 192 | 0.0 | 6.0 | 0.00 | 0.00 | 0.00 | 89 | 994.7 |
| 20260504100510 | 42 | 164 | 0.0 | 7.0 | 0.02 | 0.00 | 0.00 | 97 | 993.8 |
| 20260504082003 | 48 | 53 | 4.0 | 13.0 | 0.00 | 0.00 | 0.00 | 76 | 994.6 |
| 20260504081000 | 49 | 180 | 1.0 | 16.0 | 0.00 | 0.00 | 0.00 | 72 | 994.9 |
| 20260504080500 | 50 | 135 | 10.0 | 10.0 | 0.00 | 0.00 | 0.00 | 70 | 995.1 |
| 20260504050500 | 62 | 71 | 2.0 | 8.0 | 0.00 | 0.00 | 0.00 | 38 | 994.4 |
| 20260504045504 | 61 | 77 | 2.0 | 9.0 | 0.00 | 0.00 | 0.00 | 38 | 993.8 |
| 20260504045003 | 62 | 160 | 1.0 | 9.0 | 0.00 | 0.00 | 0.00 | 37 | 993.8 |
| 20260504044505 | 61 | 117 | 2.0 | 9.0 | 0.00 | 0.00 | 0.00 | 37 | 993.6 |
| 20260504042504 | 61 | 344 | 2.0 | 10.0 | 0.00 | 0.00 | 0.00 | 38 | 993.8 |
| 20260504042004 | 60 | 29 | 5.0 | 11.0 | 0.00 | 0.00 | 0.00 | 38 | 993.8 |
| 20260504041506 | 60 | 10 | 5.0 | 15.0 | 0.00 | 0.00 | 0.00 | 38 | 993.9 |
| 20260504041005 | 60 | 60 | 2.0 | 15.0 | 0.00 | 0.00 | 0.00 | 38 | 994.3 |
| 20260504040503 | 60 | 99 | 3.0 | 7.0 | 0.00 | 0.00 | 0.00 | 38 | 994.4 |
| 20260504040006 | 60 | 22 | 5.0 | 7.0 | 0.00 | 0.00 | 0.00 | 38 | 994.6 |
| 20260504035505 | 60 | 105 | 1.0 | 9.0 | 0.00 | 0.00 | 0.00 | 38 | 994.8 |
| 20260504035007 | 60 | 24 | 4.0 | 9.0 | 0.00 | 0.00 | 0.00 | 38 | 995.0 |
| 20260504034002 | 60 | 84 | 0.0 | 6.0 | 0.00 | 0.00 | 0.00 | 38 | 994.9 |
| 20260504033502 | 60 | 126 | 1.0 | 10.0 | 0.00 | 0.00 | 0.00 | 38 | 995.1 |
| 20260504033000 | 61 | 90 | 4.0 | 10.0 | 0.00 | 0.00 | 0.00 | 38 | 995.3 |
| 20260504032502 | 60 | 299 | 2.0 | 6.0 | 0.00 | 0.00 | 0.00 | 38 | 995.5 |
| 20260504032002 | 61 | 7 | 1.0 | 6.0 | 0.00 | 0.00 | 0.00 | 38 | 995.7 |
| 20260504031501 | 60 | 106 | 3.0 | 7.0 | 0.00 | 0.00 | 0.00 | 38 | 995.7 |
| 20260504031000 | 61 | 123 | 2.0 | 12.0 | 0.00 | 0.00 | 0.00 | 38 | 995.8 |
| 20260504030001 | 60 | 106 | 2.0 | 7.0 | 0.00 | 0.00 | 0.00 | 38 | 996.2 |
| 20260504025527 | 61 | 90 | 0.0 | 7.0 | 0.00 | 0.00 | 0.00 | 38 | 996.1 |
| 20260504025005 | 61 | 36 | 2.0 | 6.0 | 0.00 | 0.00 | 0.00 | 38 | 996.6 |
| 20260504024502 | 61 | 30 | 3.0 | 6.0 | 0.00 | 0.00 | 0.00 | 38 | 996.8 |
| 20260504024001 | 61 | 340 | 4.0 | 6.0 | 0.00 | 0.00 | 0.00 | 37 | 996.8 |
| 20260504023500 | 62 | 26 | 1.0 | 6.0 | 0.00 | 0.00 | 0.00 | 37 | 997.0 |
| 20260504022504 | 62 | 323 | 0.0 | 8.0 | 0.00 | 0.00 | 0.00 | 37 | 997.0 |
| 20260504022001 | 62 | 69 | 1.0 | 8.0 | 0.00 | 0.00 | 0.00 | 37 | 997.2 |
| 20260504021503 | 62 | 90 | 2.0 | 9.0 | 0.00 | 0.00 | 0.00 | 37 | 997.3 |
| 20260504021000 | 62 | 35 | 0.0 | 9.0 | 0.00 | 0.00 | 0.00 | 37 | 997.5 |
| 20260504020503 | 62 | 21 | 0.0 | 5.0 | 0.00 | 0.00 | 0.00 | 38 | 997.5 |
| 20260504020000 | 62 | 23 | 0.0 | 5.0 | 0.00 | 0.00 | 0.00 | 37 | 997.8 |
| 20260504014502 | 63 | 114 | 1.0 | 7.0 | 0.00 | 0.00 | 0.00 | 37 | 998.0 |
| 20260504014002 | 63 | 23 | 0.0 | 7.0 | 0.00 | 0.00 | 0.00 | 37 | 998.3 |
| 20260504013501 | 63 | 120 | 4.0 | 4.0 | 0.00 | 0.00 | 0.00 | 37 | 998.2 |
| 20260504013000 | 63 | 75 | 2.0 | 6.0 | 0.00 | 0.00 | 0.00 | 37 | 998.4 |
| 20260504012500 | 63 | 90 | 0.0 | 9.0 | 0.00 | 0.00 | 0.00 | 36 | 998.5 |
| 20260504012005 | 64 | 123 | 2.0 | 9.0 | 0.00 | 0.00 | 0.00 | 36 | 998.4 |
| 20260504011505 | 64 | 61 | 2.0 | 7.0 | 0.00 | 0.00 | 0.00 | 36 | 998.4 |
| 20260504011003 | 64 | 66 | 1.0 | 7.0 | 0.00 | 0.00 | 0.00 | 36 | 998.7 |
| 20260504010504 | 64 | 81 | 3.0 | 9.0 | 0.00 | 0.00 | 0.00 | 35 | 998.8 |
| 20260504005502 | 65 | 63 | 3.0 | 7.0 | 0.00 | 0.00 | 0.00 | 35 | 999.2 |
| 20260504004501 | 67 | 139 | 6.0 | 7.0 | 0.00 | 0.00 | 0.00 | 33 | 999.6 |
| 20260504004002 | 67 | 63 | 0.0 | 7.0 | 0.00 | 0.00 | 0.00 | 33 | 999.5 |
| 20260504003500 | 66 | 80 | 2.0 | 7.0 | 0.00 | 0.00 | 0.00 | 33 | 999.8 |
| 20260504003001 | 66 | 96 | 3.0 | 9.0 | 0.00 | 0.00 | 0.00 | 33 | 999.6 |
| 20260504002502 | 66 | 90 | 2.0 | 9.0 | 0.00 | 0.00 | 0.00 | 33 | 999.8 |
| 20260504002003 | 66 | 0 | 0.0 | 9.0 | 0.00 | 0.00 | 0.00 | 34 | 1000.0 |
| 20260504001501 | 66 | 137 | 4.0 | 9.0 | 0.00 | 0.00 | 0.00 | 33 | 1000.1 |
| 20260504001001 | 66 | 94 | 2.0 | 7.0 | 0.00 | 0.00 | 0.00 | 33 | 1000.0 |
| 20260504000501 | 66 | 80 | 4.0 | 7.0 | 0.00 | 0.00 | 0.00 | 33 | 1000.4 |
| 20260503235500 | 67 | 172 | 3.0 | 10.0 | 0.00 | 0.00 | 0.00 | 32 | 1000.6 |
| 20260503235002 | 66 | 50 | 2.0 | 12.0 | 0.00 | 0.00 | 0.00 | 32 | 1000.4 |
| 20260503234501 | 67 | 70 | 3.0 | 12.0 | 0.00 | 0.00 | 0.00 | 33 | 1000.7 |
| 20260503234001 | 67 | 122 | 4.0 | 10.0 | 0.00 | 0.00 | 0.00 | 32 | 1000.6 |
| 20260503233503 | 67 | 12 | 0.0 | 8.0 | 0.00 | 0.00 | 0.00 | 32 | 1000.9 |
| 20260503233002 | 68 | 63 | 1.0 | 11.0 | 0.00 | 0.00 | 0.00 | 31 | 1000.7 |
| 20260503232501 | 69 | 118 | 6.0 | 14.0 | 0.00 | 0.00 | 0.00 | 30 | 1001.1 |
| 20260503232000 | 69 | 32 | 3.0 | 14.0 | 0.00 | 0.00 | 0.00 | 30 | 1001.5 |
| 20260503231501 | 69 | 90 | 4.0 | 9.0 | 0.00 | 0.00 | 0.00 | 29 | 1001.6 |
| 20260503231001 | 69 | 19 | 2.0 | 9.0 | 0.00 | 0.00 | 0.00 | 30 | 1001.6 |
| 20260503230501 | 69 | 132 | 6.0 | 9.0 | 0.00 | 0.00 | 0.00 | 31 | 1001.6 |
| 20260503230002 | 70 | 77 | 1.0 | 10.0 | 0.00 | 0.00 | 0.00 | 30 | 1001.9 |
| 20260503225503 | 69 | 81 | 4.0 | 10.0 | 0.00 | 0.00 | 0.00 | 30 | 1001.8 |
| 20260503225001 | 70 | 110 | 2.0 | 9.0 | 0.00 | 0.00 | 0.00 | 31 | 1002.1 |
| 20260503223503 | 68 | 114 | 1.0 | 11.0 | 0.00 | 0.00 | 0.00 | 33 | 1002.3 |
| 20260503223001 | 69 | 137 | 9.0 | 11.0 | 0.00 | 0.00 | 0.00 | 31 | 1002.3 |
| 20260503222500 | 68 | 138 | 3.0 | 12.0 | 0.00 | 0.00 | 0.00 | 31 | 1002.6 |
| 20260503222003 | 68 | 53 | 2.0 | 12.0 | 0.00 | 0.00 | 0.00 | 32 | 1002.5 |
| 20260503221503 | 67 | 139 | 4.0 | 10.0 | 0.00 | 0.00 | 0.00 | 33 | 1002.7 |
| 20260503221002 | 67 | 194 | 1.0 | 11.0 | 0.00 | 0.00 | 0.00 | 32 | 1002.7 |
| 20260503220503 | 68 | 120 | 7.0 | 11.0 | 0.00 | 0.00 | 0.00 | 31 | 1002.8 |
| 20260503220003 | 68 | 191 | 4.0 | 11.0 | 0.00 | 0.00 | 0.00 | 30 | 1002.8 |
| 20260503215502 | 69 | 73 | 2.0 | 9.0 | 0.00 | 0.00 | 0.00 | 30 | 1003.0 |
| 20260503215003 | 70 | 72 | 4.0 | 9.0 | 0.00 | 0.00 | 0.00 | 28 | 1003.2 |
| 20260503214004 | 68 | 156 | 2.0 | 13.0 | 0.00 | 0.00 | 0.00 | 28 | 1003.3 |
| 20260503213505 | 68 | 94 | 5.0 | 13.0 | 0.00 | 0.00 | 0.00 | 27 | 1003.7 |
| 20260503213001 | 68 | 149 | 3.0 | 11.0 | 0.00 | 0.00 | 0.00 | 27 | 1003.6 |
| 20260503212500 | 68 | 110 | 4.0 | 10.0 | 0.00 | 0.00 | 0.00 | 28 | 1004.1 |
| 20260503212000 | 69 | 96 | 1.0 | 8.0 | 0.00 | 0.00 | 0.00 | 28 | 1004.0 |
| 20260503211503 | 69 | 110 | 3.0 | 9.0 | 0.00 | 0.00 | 0.00 | 28 | 1004.1 |
| 20260503211002 | 69 | 117 | 2.0 | 11.0 | 0.00 | 0.00 | 0.00 | 30 | 1004.1 |
| 20260503210501 | 68 | 122 | 4.0 | 11.0 | 0.00 | 0.00 | 0.00 | 28 | 1004.4 |
| 20260503210003 | 68 | 36 | 2.0 | 8.0 | 0.00 | 0.00 | 0.00 | 29 | 1004.4 |
| 20260503205501 | 66 | 134 | 8.0 | 8.0 | 0.00 | 0.00 | 0.00 | 29 | 1004.5 |
| 20260503204503 | 67 | 53 | 2.0 | 9.0 | 0.00 | 0.00 | 0.00 | 30 | 1004.6 |
| 20260503204001 | 68 | 159 | 2.0 | 9.0 | 0.00 | 0.00 | 0.00 | 30 | 1004.6 |
| 20260503203456 | 68 | 65 | 2.0 | 10.0 | 0.00 | 0.00 | 0.00 | 29 | 1004.5 |
| 20260503202956 | 68 | 173 | 4.0 | 10.0 | 0.00 | 0.00 | 0.00 | 28 | 1004.7 |
| 20260503202456 | 69 | 62 | 3.0 | 8.0 | 0.00 | 0.00 | 0.00 | 29 | 1004.6 |